Location: Fort Wayne
(41.1310°N, 85.1290°W)
Time: 19:13:57
(UTC-04:00)

OPAL - Visible Passes

Search period start: 28 August 2014 00:00
Search period end: 07 September 2014 00:00
Orbit: 744 x 796 km, 100.2° (Epoch: 25 August)

Date Brightness Start Highest point End Pass type
(mag) Time Alt. Az. Time Alt. Az. Time Alt. Az.
28 Aug 10.0 03:56:36 10° ESE 04:00:03 19° ENE 04:03:31 10° NNE visible
28 Aug 7.5 05:33:31 10° S 05:38:27 57° WSW 05:43:30 10° NNW visible
29 Aug 7.8 04:58:16 10° SSE 05:03:15 66° ENE 05:08:21 10° N visible
30 Aug 9.2 04:23:51 10° SE 04:28:15 31° ENE 04:32:45 10° N visible
30 Aug 8.2 06:02:35 10° SSW 06:07:04 32° W 06:11:38 10° NW visible
31 Aug 10.3 03:50:29 10° E 03:53:27 16° ENE 03:56:27 10° NNE visible
31 Aug 7.4 05:26:42 10° S 05:31:43 70° WSW 05:36:52 10° NNW visible
01 Sep 8.2 04:51:39 10° SE 04:56:35 54° ENE 05:01:36 10° N visible
01 Sep 8.9 06:32:23 10° SW 06:35:47 18° W 06:39:14 10° NW visible
02 Sep 9.5 04:17:27 10° ESE 04:21:38 26° ENE 04:25:52 10° N visible
02 Sep 7.9 05:55:35 10° SSW 06:00:18 39° W 06:05:06 10° NNW visible
03 Sep 10.4 03:44:31 10° E 03:46:53 13° ENE 03:49:15 10° NNE visible
03 Sep 7.4 05:19:56 10° SSE 05:25:00 85° WSW 05:30:12 10° NNW visible
04 Sep 8.6 04:45:06 10° SE 04:49:55 45° ENE 04:54:49 10° N visible
04 Sep 8.6 06:25:06 10° SW 06:28:59 22° W 06:32:56 10° NW visible
05 Sep 9.8 04:11:08 10° ESE 04:15:01 22° ENE 04:18:56 10° NNE visible
05 Sep 7.7 05:48:39 10° S 05:53:33 47° WSW 05:58:32 10° NNW visible
06 Sep 10.6 03:38:54 10° ENE 03:40:19 11° NE 03:41:43 10° NE visible
06 Sep 7.6 05:13:13 10° SSE 05:18:18 80° ENE 05:23:30 10° NNW visible
